Regional Weather Roundup
Issued by NWS Jackson, KY

Home | Current Version | Previous Version | Graphics & Text | Print | Product List | Glossary On
Versions: 1 2 3 4 5 6 7 8 9 10 11 12 13 14 15 16 17 18 19 20 21 22 23 24 25 26 27 28 29 30 31 32 33 34 35 36 37 38 39 40 41 42 43 44 45 46 47 48 49 50
000
ASUS43 KJKL 181105
RWRJKL

EAST KENTUCKY HOURLY WEATHER ROUNDUP
NATIONAL WEATHER SERVICE JACKSON KY
700 AM EDT THU SEP 18 2014

NOTE: "FAIR" INDICATES FEW OR NO CLOUDS BELOW 12,000 FEET WITH
NO SIGNIFICANT WEATHER AND/OR OBSTRUCTIONS TO VISIBILITY.

* THESE REPORTS ARE NOT UNDER NWS QUALITY CONTROL AND MAY NOT
  REPORT WEATHER SUCH AS PRECIPITATION AND FOG.

KYZ079-080-083-085-087-088-110-112-115-119-120-181200
...EASTERN KENTUCKY...

CITY           SKY/WX    TMP DP  RH WIND       PRES   REMARKS
JACKSON        CLOUDY    54  51  90 CALM      30.03R
LONDON         PTCLDY    57  54  89 CALM      30.02S
MONTICELLO*    PTCLDY    56  55  96 CALM      30.03R FOG
WILLIAMSBURG*  CLOUDY    54  54 100 CALM      30.02S
MIDDLESBORO*   CLOUDY    56  56  99 CALM      30.02S
HARLAN APT*    CLOUDY    55  55 100 MISG      30.03S
BLACK MTN*       N/A     50  50 100 N6          N/A
PIKEVILLE APT* FOG       54  54 100 CALM      30.03R VSB 0
BIG SANDY*     FOG       53  53 100 W3        30.03R VSB<1/4
MOREHEAD APT*  CLOUDY    54  52  94 CALM      30.05S FOG
$$

KYZ035-036-041-042-044-050-067-078-099-181200
...CENTRAL KENTUCKY...

CITY           SKY/WX    TMP DP  RH WIND       PRES   REMARKS
MT STERLING*   CLOUDY    54  52  94 CALM      30.04S
FLEMING/MASON* MOCLDY    51  49  92 CALM      30.05R
DANVILLE*      CLOUDY    55  52  88 CALM      30.03S
RICHMOND*      MOCLDY    55  52  88 CALM      30.02S
LEXINGTON      CLOUDY    58  51  78 NE6       30.03S
FRANKFORT      MOCLDY    53  52  96 CALM      30.01F
$$

KYZ091>093-OHZ055-061-077-WVZ005-015-034-035-042-181200
...SOUTHERN OHIO/WEST VIRGINIA...

CITY           SKY/WX    TMP DP  RH WIND       PRES   REMARKS
COVINGTON      CLEAR     53  48  83 CALM      30.04R
COLUMBUS       PTCLDY    52  47  83 N5        30.04S
DAYTON         PTCLDY    48  46  93 CALM      30.06R
WILMINGTON     CLEAR     46  43  89 NE6       30.04S FOG
HUNTINGTON     MOCLDY    54  53  97 CALM      30.01R
CHARLESTON     CLOUDY    56  56 100 CALM      30.01R FOG
PINEVILLE*     FOG       58  58 100 MISG      30.08S VSB 3/4
BECKLEY        CLOUDY    56  53  90 N3        30.04S
BLUEFIELD      FOG       54  52  93 SW3       30.04S VSB 1/2
$$

VAZ002-007-008-TNZ017-027-036-066-071-181200
...SOUTHWEST VIRGINIA/EAST TENNESSEE...

CITY           SKY/WX    TMP DP  RH WIND       PRES   REMARKS
WISE*          PTCLDY    52  52 100 CALM      30.06R FOG
JONESVILLE*    CLOUDY    54  54 100 CALM      30.04F FOG
ABINGDON*      FOG       54  54 100 CALM      30.03R VSB 1
BRISTOL        FOG       54  51  90 CALM      30.02S VSB 1/2
OAK RIDGE      CLOUDY    61  58  90 CALM      30.01S
CROSSVILLE     CLEAR     58  53  84 CALM      30.02S
NASHVILLE      MOCLDY    61  57  87 CALM      29.99R
$$

...KEY TO REMARKS...
VSB - VISIBILITY IN MILES
WCI - WIND CHILL INDEX
HX  - HEAT INDEX

$$



USA.gov is the U.S. government's official web portal to all federal, state and local government web resources and services.